www.pogodaiklimat.ru

Погода и климат >> Архив погоды >> Канада >> Hanbury River ARS


ПОГОДА в Hanbury River ARS

  • Прогноз погоды в Hanbury River ARS
  • Монитор погоды в Hanbury River ARS
  • Климат города

АРХИВ ПОГОДЫ в Hanbury River ARS

Время (UTC), дата Ветер
(напр.,м/с)
 
Видим.   Явления Облачность Т
(С)
Тd
(С)
f
(%)
Тe
(С)
Тes
(С)
Комфортность P
(гПа)
Po
(гПа)
Тmin
(С)
Tmax
(С)
R
(мм)
R24
(мм)
S
(см)
18 10.11 0 н/о н/о -10.7 -13.1 82 1001.1 960.9 -15.7 -10.2
21 10.11 0 н/о н/о -10.0 -11.9 86 1002.2 962.0
00 11.11 0 н/о н/о -14.3 -16.8 81 1005.1 964.4 -15.7 -8.8
03 11.11 0 н/о н/о -16.3 -18.9 80 1007.0 966.2
06 11.11 0 н/о н/о -18.8 -21.5 79 1009.0 968.1 -18.9 -8.8
09 11.11 0 н/о н/о -20.0 -22.8 78 1011.4 970.4
12 11.11 0 н/о н/о -21.5 -24.2 79 1013.6 972.2 -21.5 -8.8 19
15 11.11 0 н/о н/о -22.2 -24.7 80 1015.4 973.8
18 11.11 0 н/о н/о -21.0 -24.1 76 1017.1 975.4 -23.0 -18.8
00 12.11 0 н/о н/о -23.0 -25.7 78 1020.3 978.2
03 12.11 0 н/о н/о -24.1 -26.7 79 1021.5 979.3
06 12.11 0 н/о н/о -21.3 -24.0 79 1022.2 980.1
12 12.11 0 н/о н/о -21.9 -24.9 77 1023.1 980.9 18
15 12.11 0 н/о н/о -25.4 -28.4 76 1023.9 981.4
18 12.11 0 н/о н/о -23.1 -26.5 74 1023.9 981.7
21 12.11 0 н/о н/о -24.0 -27.8 71 1024.5 981.8
00 13.11 0 н/о н/о -25.1 -27.0 84 1024.7 982.3 -21.9
03 13.11 0 н/о н/о -23.6 -26.3 78 1023.8 981.3
06 13.11 0 н/о н/о -21.7 -24.2 80 1022.4 980.2
09 13.11 0 н/о н/о -20.7 -23.2 80 1021.0 978.9
12 13.11 0 н/о н/о -20.7 -23.2 80 1019.7 977.6 -25.1 18
15 13.11 0 н/о {осадки} н/о -20.7 -23.1 81 1018.5 976.5 0.2
18 13.11 0 н/о {осадки} н/о -19.8 -22.3 80 1018.5 976.6 -27.4 -19.0 0.4
21 13.11 0 н/о н/о -20.3 -22.9 80 1019.2 977.3
00 14.11 0 н/о н/о -22.8 -25.5 79 1020.9 978.8 -22.8 -19.0
03 14.11 0 н/о н/о -21.5 -24.1 79 1022.9 980.8
06 14.11 0 н/о н/о -22.7 -25.3 79 1024.3 982.2 -25.0 -19.0
09 14.11 0 н/о н/о -19.5 -21.9 81 1026.0 983.9
12 14.11 0 н/о н/о -20.4 -22.9 80 1028.1 985.8 -25.0 -19.0 19
15 14.11 0 н/о н/о -20.8 -23.4 80 1029.6 987.2
18 14.11 0 н/о н/о -19.6 -22.0 81 1030.4 988.0 -25.0 -18.8
21 14.11 0 н/о н/о -17.9 -20.1 83 1030.2 988.1
00 15.11 0 н/о н/о -17.8 -20.0 83 1030.3 988.1 -22.7 -17.3
03 15.11 0 н/о н/о -16.4 -18.4 84 1030.4 988.3
06 15.11 0 н/о н/о -16.0 -18.0 85 1030.7 988.6 -22.7 -15.9
09 15.11 0 н/о н/о -16.1 -18.1 85 1030.4 988.4
12 15.11 0 н/о н/о -17.9 -20.4 81 1030.1 988.1 -17.9 -15.9 18
15 15.11 0 н/о н/о -23.5 -26.1 79 1030.3 988.0
18 15.11 0 н/о н/о -23.3 -26.3 76 1029.5 987.3 -24.3 -15.7
21 15.11 0 н/о н/о -23.7 -26.8 76 1029.2 987.0
00 16.11 0 н/о н/о -26.0 -28.8 77 1028.0 985.6 -26.3 -17.9
03 16.11 0 н/о н/о -28.6 -31.6 75 1026.9 984.1
06 16.11 0 н/о н/о -23.7 -26.3 79 1024.8 982.4 -29.8 -15.7
09 16.11 0 н/о н/о -19.9 -22.3 81 1022.5 980.4
12 16.11 0 н/о н/о -24.0 -26.7 78 1020.2 977.8 -29.8 -15.7 18
15 16.11 0 н/о н/о -23.6 -26.4 78 1017.2 974.8
18 16.11 0 н/о н/о -21.8 -24.4 79 1014.4 972.5 -29.8 -18.3
21 16.11 0 н/о {осадки} н/о -20.5 -23.0 80 1010.8 969.3 0.2
00 17.11 0 н/о {осадки} н/о -19.5 -21.8 82 1008.3 966.8 -24.7 -19.5 0.4
03 17.11 0 н/о н/о -18.4 -20.7 82 1005.8 964.4 0.2
06 17.11 0 н/о {осадки} н/о -17.5 -19.8 82 1003.4 962.3 -24.7 -17.2 0.5
09 17.11 0 н/о н/о -17.4 -19.5 84 1001.7 960.7 0.2
12 17.11 0 н/о {осадки} н/о -22.0 -24.6 79 1000.9 959.8 -22.0 -17.2 0.4 18
15 17.11 0 н/о н/о -21.6 -24.0 81 1000.9 959.8

 

Местоположение метеостанции Hanbury River ARS (Канада): широта 63.58 долгота -105.15 высота над уровнем моря 317 м.

В архиве по умолчанию представлена погода в Hanbury River ARS за последнюю неделю. Архивные данные за месяц целиком и за предыдущие месяцы, начиная с января 2011 года, Вы можете получить, выбрав интересующий диапазон дат из раскрывающегося списка и нажав кнопку "Ввод!".

Внимание! Время в таблицах - всемирное. Для получения местного времени необходимо прибавить поправку, которая в Hanbury River ARS равна -7 ч.

Смотрите также архив погоды в соседних городах и на ближайших метеорологических станциях:

Погода в Dubawnt Lake (Канада) (176 км)
Погода в Robertson Lake (Канада) (215 км)
Погода в Fort Reliance (aut) (Канада) (221 км)
Погода в Porter Lake (Канада) (270 км)
Погода в Lustel Ke A (Канада) (304 км)
Погода в Lupin (Канада) (377 км)
Погода в Lupin (maps) (Канада) (377 км)
Погода в Baker Lake Airport (Канада) (451 км)
Погода в Baker Lake Climate (Канада) (454 км)
Погода в Inner Whalebacks (Канада) (472 км)

Пояснения к столбцам:

Ветер - указаны скорость ветра в м/с - средняя за 10 мин, порывы в срок и между сроками (в фигурных скобках) и направление, откуда дует ветер: С - северный, СВ - северо-восточный, В - восточный, ЮВ - юго-восточный, Ю - южный, ЮЗ - юго-западный, З - западный, СЗ - северо-западный.
Видимость - горизонтальная дальность видимости в метрах или километрах. При видимости от 1 до 10 км при отсутствии осадков обычно наблюдается дымка, при ухудшении видимости до 1 км и менее - туман. В сухую погоду видимость может ухудшаться дымом, пылью или мглою.
Явления - указаны атмосферные явления, наблюдавшиеся в срок или в последний час перед сроком; фигурными скобками обозначены явления, наблюдавшиеся между сроками (за 1-3 часа до срока); квадратными скобками обозначены град или гололедные отложения с указанием их диаметра в мм.
Облачность - указаны через наклонную черту общая и нижняя облачность в баллах и высота нижней границы облаков в метрах; квадратными скобками обозначены формы облаков: Ci - перистые, Cs - перисто-слоистые, Cc - перисто-кучевые, Ac - высококучевые, As - высокослоистые, Sc - слоисто-кучевые, Ns - слоисто-дождевые, Cu - кучевые, Cb - кучево-дождевые. Подробнее классификацию облаков см. в Атласе облаков (PDF).
T - Температура воздуха - температура, измеренная на высоте 2 м над землей.
Td - Температура точки росы - температура, при понижении до которой содержащийся в воздухе водяной пар достигнет насыщения.
f - Относительная влажность воздуха - влажноcть воздуха, измеренная на высоте 2 м над землей.
Te - Эффективная температура - температура, которую ощущает одетый по сезону человек в тени. Характеристика душности погоды. При расчете учитывается влияние влажности воздуха и скорости ветра на теплоощущения человека.
Tes - Эффективная температура на солнце - температура, которую ощущает человек, с поправкой на солнечный нагрев. Характеристика знойности погоды. Зависит от высоты солнца над горизонтом, облачности и скорости ветра. Ночью, в пасмурную погоду, а также при ветре 12 м/с и более поправка равна нулю.
P - Атмосферное давление - приведенное к уровню моря атмосферное давление.
Po - Атмосферное давление - измеренное на уровне метеостанции атмосферное давление.
Tmin - Минимальная температура - минимум температуры воздуха на высоте 2 м над землей.
Tmax - Максимальная температура - максимум температуры воздуха на высоте 2 м над землей.
R - Количество осадков - Количество выпавших осадков за период времени, мм. При наведении курсора мыши на число - период времени, за который выпало указанное количество осадков.
R24 - Количество осадков - Количество выпавших осадков за 24 часа, мм.
S - Снежный покров - Высота снежного покрова, см. При наведении курсора мыши на число - состояние снежного покрова и степень покрытия местности в баллах.